[[{"header":{"parameterUnit":"m.s-1","parameterCategory":1,"la1":30.2991,"la2":30.254,"lo1":-89.0895,"lo2":-89.0444,"dy":0.0017,"dx":0.0017,"nx":28,"ny":28,"refTime":"2023-09-04T03:00:00:Z","depth":0,"parameterNumber":2,"parameterNumberName":"U-component_of_WINDS"},"data":[0,0,0,0,0,0,0,0,0,0,0,0,0,0,0,0,0,0,0,0,0,0,0,0,0,0,0,0,0,0,0,0,0,0,0,0,0,0,0,0,0,0,0,0,0,0,0,0,0,0,0,0,0,0,0,0,0,0,-3.6899,-3.6896,0,-3.6634,-3.6631,-3.6628,-3.6426,-3.6424,-3.6422,-3.642,-3.6155,-3.615,-3.6144,0,0,0,0,0,0,0,0,0,0,0,0,0,-3.7232,-3.7227,-3.6899,-3.6896,-3.6893,-3.6635,-3.6631,-3.6627,-3.6426,-3.6424,-3.6422,-3.6419,-3.6157,-3.615,-3.6144,0,0,0,0,0,0,0,0,0,0,0,0,0,-3.704,-3.7225,-3.69,-3.6761,-3.6746,-3.6635,-3.6631,-3.6626,-3.6427,-3.6424,-3.6421,-3.6418,-3.6159,-3.6151,-3.6143,-3.6151,0,0,-3.6119,-3.6115,0,0,0,0,0,0,0,0,-3.7051,-3.7028,-3.6785,-3.677,-3.6753,-3.656,-3.6651,-3.6467,-3.6427,-3.6548,-3.642,-3.6417,-3.6292,-3.6273,-3.623,-3.6139,-3.6127,-3.6118,-3.6113,-3.611,-3.6108,0,0,0,0,0,0,0,-3.7064,-3.7038,-3.6794,-3.6782,-3.6762,-3.6712,-3.6682,-3.6615,-3.644,-3.6537,-3.6522,-3.6493,-3.6283,-3.6238,-3.6222,-3.6123,-3.6118,-3.6111,-3.6106,-3.6103,-3.6018,-3.602,0,0,0,0,0,0,-3.7099,-3.705,-3.6803,-3.6786,-3.6898,-3.6709,-3.6674,-3.6625,-3.644,-3.6409,-3.6496,-3.6485,-3.6253,-3.6232,-3.6212,-3.6204,-3.611,-3.6102,-3.6098,-3.6016,-3.6019,-3.6021,0,0,0,0,0,0,-3.7107,-3.7079,-3.6814,-3.6914,-3.6876,-3.6706,-3.6652,-3.6621,-3.6576,-3.6408,-3.6376,-3.6482,-3.625,-3.6223,-3.6166,-3.6192,-3.6099,-3.6092,-3.6013,-3.6016,-3.602,-3.6192,0,0,0,0,0,0,-3.7117,-3.7083,-3.7084,-3.6916,-3.6872,-3.6772,-3.6654,-3.6618,-3.6562,-3.6545,-3.6387,-3.6358,-3.6246,-3.6179,-3.6158,-3.618,-3.6085,-3.6009,-3.6014,-3.6019,-3.6183,-3.6201,-3.6217,0,0,0,0,0,-3.713,-3.7146,-3.7086,-3.7057,-3.687,-3.6774,-3.6749,-3.6618,-3.6565,-3.6564,-3.6456,-3.6363,-3.6193,-3.6174,-3.6149,-3.6169,-3.6007,-3.6013,-3.6018,-3.6176,-3.6198,-3.6216,0,0,0,0,0,0,-3.7326,-3.7122,-3.7052,-3.7014,-3.6912,-3.674,-3.6736,-3.6646,-3.6559,-3.6547,-3.639,-3.6356,-3.6314,-3.6236,-3.6219,-3.6164,-3.6088,-3.6089,-3.6216,-3.6236,-3.6252,-3.6271,-3.6079,0,0,0,0,0,-3.7364,-3.7303,-3.7128,-3.7111,-3.7063,-3.6909,-3.6862,-3.6769,-3.6658,-3.6615,-3.6502,-3.64,-3.6322,-3.6275,-3.6195,-3.6171,-3.6131,-3.6172,-3.6189,-3.6203,-3.6206,-3.6181,-3.6196,-3.604,-3.604,-3.604,0,0,-3.7444,-3.7325,-3.7296,-3.7147,-3.7057,-3.6996,-3.6874,-3.6816,-3.6768,-3.6607,-3.6543,-3.6457,-3.6332,-3.629,-3.6266,-3.6223,-3.624,-3.621,-3.6223,-3.6217,-3.6189,-3.6204,-3.6217,-3.6044,-3.6043,-3.6042,0,0,-3.7557,-3.7462,-3.7434,-3.7345,-3.7209,-3.7105,-3.7099,-3.6938,-3.6873,-3.6807,-3.6682,-3.6624,-3.6496,-3.641,-3.6349,-3.6423,-3.6333,-3.6402,-3.6489,-3.6468,-3.648,-3.649,-3.6512,-3.6522,-3.6405,-3.6406,-3.6406,0,-3.7674,-3.7575,-3.7433,-3.7379,-3.7316,-3.7163,-3.7132,-3.7054,-3.6901,-3.686,-3.6815,-3.6645,-3.6551,-3.6483,-3.6501,-3.6458,-3.6444,-3.6419,-3.6489,-3.6498,-3.6505,-3.6525,-3.6534,-3.6415,-3.6414,-3.6413,-3.6412,0,-3.7723,-3.7657,-3.7651,-3.7501,-3.7437,-3.7397,-3.7247,-3.72,-3.7112,-3.7012,-3.6944,-3.6824,-3.6714,-3.6692,-3.6608,-3.6611,-3.6588,-3.6519,-3.6439,-3.6531,-3.6547,-3.6553,-3.6427,-3.6424,-3.6421,-3.6419,0,0,-3.7955,-3.7722,-3.7723,-3.765,-3.7486,-3.7432,-3.7383,-3.7272,-3.7233,-3.7131,-3.7084,-3.6976,-3.6908,-3.684,-3.6744,-3.6725,-3.6785,-3.6656,-3.665,-3.6681,-3.6777,-3.6828,-3.684,-3.6725,-3.6726,-3.6726,-3.6786,0,-3.804,-3.7941,-3.7808,-3.7754,-3.7688,-3.7539,-3.7495,-3.739,-3.7295,-3.7225,-3.7121,-3.7044,-3.6963,-3.6919,-3.6894,-3.6784,-3.6802,-3.6778,-3.6678,-3.6676,-3.6712,-3.6848,-3.6904,-3.6966,-3.6791,-3.6792,-3.6793,0,-3.8127,-3.8028,-3.7966,-3.7801,-3.7768,-3.7732,-3.7616,-3.7552,-3.7428,-3.736,-3.728,-3.7175,-3.7113,-3.7043,-3.6955,-3.6941,-3.6892,-3.6831,-3.683,-3.6815,-3.6739,-3.6833,-3.6983,-3.6992,-3.6802,-3.6801,-3.6801,0,-3.8298,-3.8149,-3.8091,-3.8034,-3.7842,-3.7819,-3.7738,-3.761,-3.755,-3.745,-3.7409,-3.7305,-3.7248,-3.7169,-3.7037,-3.6999,-3.6962,-3.6882,-3.6902,-3.6905,-3.69,-3.6902,-3.7042,-3.6874,-3.6874,-3.6874,-3.6874,0,-3.8405,-3.8373,-3.8164,-3.8129,-3.8086,-3.7933,-3.7895,-3.78,-3.7687,-3.763,-3.7496,-3.7445,-3.7275,-3.7204,-3.7101,-3.7041,-3.7018,-3.6959,-3.6932,-3.697,-3.6977,-3.6935,-3.6926,-3.6876,-3.6875,-3.6875,-3.6875,0,-3.859,-3.8449,-3.8375,-3.8196,-3.8151,-3.8127,-3.7974,-3.7933,-3.7827,-3.7756,-3.7731,-3.7567,-3.7475,-3.7335,-3.7204,-3.7134,-3.709,-3.7047,-3.7131,-3.7114,-3.7141,-3.7139,-3.7257,-3.7262,-3.7095,-3.7097,-3.7099,0,-3.8667,-3.8637,-3.8453,-3.8403,-3.8325,-3.8248,-3.8184,-3.8031,-3.797,-3.7823,-3.7799,-3.7696,-3.7605,-3.7466,-3.7335,-3.7232,-3.7184,-3.7232,-3.7168,-3.7205,-3.718,-3.7182,-3.7177,-3.7247,-3.725,-3.7252,-3.7253,0,-3.8818,-3.8748,-3.866,-3.8546,-3.8472,-3.8376,-3.8274,-3.8241,-3.8065,-3.8003,-3.7905,-3.7835,-3.7696,-3.7595,-3.7473,-3.7389,-3.7292,-3.7274,-3.7272,-3.731,-3.7359,-3.7329,-3.7169,-3.7272,-3.727,-3.7269,-3.7268,-3.7267,-3.8948,-3.8912,-3.8775,-3.868,-3.8585,-3.8491,-3.8441,-3.8327,-3.8243,-3.8116,-3.8031,-3.7937,-3.7808,-3.7633,-3.7554,-3.7478,-3.7437,-3.7436,-3.7435,-3.7437,-3.7448,-3.7372,-3.7456,-3.7455,-3.7455,-3.7454,-3.7453,0,-3.9089,-3.8992,-3.8906,-3.8763,-3.8687,-3.8598,-3.8478,-3.8421,-3.8339,-3.8226,-3.8137,-3.8022,-3.7922,-3.7781,-3.7669,-3.7635,-3.7587,-3.7611,-3.7611,-3.7592,-3.7494,-3.7504,-3.7651,-3.7651,-3.7651,-3.7651,-3.7651,-3.7651,-3.9154,-3.9086,-3.8999,-3.8882,-3.8784,-3.8689,-3.8627,-3.8538,-3.8446,-3.8323,-3.8237,-3.8144,-3.8018,-3.7895,-3.7798,-3.7759,-3.7723,-3.776,-3.7708,-3.7618,-3.76,-3.7583,-3.7592,-3.7754,-3.7755,-3.7811,-3.7812,-3.7812]},{"header":{"parameterUnit":"m.s-1","parameterCategory":1,"la1":30.2991,"la2":30.254,"lo1":-89.0895,"lo2":-89.0444,"dy":0.0017,"dx":0.0017,"nx":28,"ny":28,"refTime":"2023-09-04T03:00:00:Z","depth":0,"parameterNumber":3,"parameterNumberName":"V-component_of_WINDS"},"data":[0,0,0,0,0,0,0,0,0,0,0,0,0,0,0,0,0,0,0,0,0,0,0,0,0,0,0,0,0,0,0,0,0,0,0,0,0,0,0,0,0,0,0,0,0,0,0,0,0,0,0,0,0,0,0,0,0,0,5.1457,5.1458,0,5.1562,5.1564,5.1565,5.1566,5.1565,5.1563,5.1562,5.1664,5.1668,5.1672,0,0,0,0,0,0,0,0,0,0,0,0,0,5.1252,5.1255,5.1457,5.1459,5.146,5.1562,5.1564,5.1565,5.1566,5.1565,5.1563,5.1562,5.1663,5.1667,5.1672,0,0,0,0,0,0,0,0,0,0,0,0,0,5.1347,5.1257,5.1457,5.1473,5.1475,5.1562,5.1564,5.1565,5.1567,5.1565,5.1563,5.1561,5.1661,5.1667,5.1673,5.1748,0,0,5.1691,5.1693,0,0,0,0,0,0,0,0,5.1342,5.1355,5.1469,5.1472,5.1475,5.1549,5.1528,5.1627,5.1567,5.1532,5.1562,5.156,5.1627,5.1635,5.1659,5.1753,5.1757,5.1691,5.1695,5.1697,5.1699,0,0,0,0,0,0,0,5.1335,5.135,5.1499,5.1471,5.1474,5.1473,5.1484,5.1547,5.1589,5.1535,5.1535,5.1548,5.1628,5.1654,5.1662,5.1759,5.1691,5.1696,5.17,5.1702,5.1918,5.192,0,0,0,0,0,0,5.1326,5.1345,5.1495,5.1502,5.1402,5.1478,5.1491,5.1527,5.1588,5.1596,5.1549,5.1547,5.1645,5.1655,5.1665,5.1756,5.1697,5.1703,5.1706,5.1916,5.1919,5.1921,0,0,0,0,0,0,5.1322,5.134,5.1491,5.1423,5.1443,5.1484,5.1525,5.153,5.1556,5.1599,5.1606,5.1568,5.1643,5.1657,5.1728,5.176,5.1705,5.1711,5.1913,5.1917,5.192,5.194,0,0,0,0,0,0,5.1316,5.1338,5.1368,5.1424,5.1446,5.1553,5.1527,5.1534,5.1567,5.1565,5.1619,5.1626,5.1643,5.1719,5.1733,5.1767,5.1715,5.1911,5.1915,5.1919,5.1936,5.1943,5.1949,0,0,0,0,0,5.1308,5.1369,5.137,5.1388,5.1486,5.1555,5.1568,5.1588,5.157,5.1599,5.1627,5.1624,5.1755,5.1726,5.1743,5.1778,5.1909,5.1914,5.1918,5.1933,5.1942,5.1949,0,0,0,0,0,0,5.1314,5.1376,5.1378,5.1459,5.1502,5.1555,5.1594,5.1596,5.1644,5.164,5.1661,5.1673,5.1743,5.1768,5.1735,5.1854,5.1829,5.1838,5.1835,5.1843,5.185,5.1841,5.172,0,0,0,0,0,5.1325,5.1378,5.1429,5.1496,5.1517,5.1552,5.1583,5.1595,5.164,5.1657,5.169,5.1732,5.1782,5.1814,5.1863,5.1941,5.1951,5.1973,5.198,5.1985,5.1991,5.2032,5.2042,5.1937,5.1937,5.1937,0,0,5.1347,5.1388,5.142,5.1498,5.1532,5.1585,5.1567,5.1624,5.1662,5.1665,5.1734,5.176,5.1807,5.1881,5.1916,5.1904,5.2023,5.1991,5.1995,5.1998,5.2038,5.2048,5.2056,5.1941,5.194,5.1939,0,0,5.1414,5.1452,5.151,5.1546,5.1599,5.1622,5.1636,5.169,5.1707,5.1777,5.178,5.1825,5.1912,5.1946,5.1974,5.2054,5.2052,5.207,5.2102,5.2142,5.215,5.2157,5.2183,5.2193,5.2076,5.2076,5.2076,0,5.1434,5.1516,5.1539,5.1596,5.1629,5.1637,5.1695,5.1728,5.1793,5.1815,5.1802,5.1911,5.1944,5.2024,5.2044,5.2068,5.2082,5.2062,5.2147,5.2155,5.2162,5.2187,5.2197,5.2078,5.2078,5.2078,5.2077,0,5.1536,5.1593,5.1633,5.1698,5.1736,5.1793,5.1824,5.1859,5.1868,5.1892,5.1962,5.2002,5.2058,5.2079,5.2088,5.2161,5.2152,5.2143,5.2118,5.2173,5.2197,5.2207,5.208,5.208,5.2079,5.2079,0,0,5.1607,5.1686,5.17,5.1729,5.179,5.1832,5.1889,5.1946,5.1975,5.202,5.2066,5.214,5.2133,5.2165,5.2178,5.2213,5.2271,5.2199,5.2201,5.2209,5.2351,5.2355,5.2366,5.2271,5.2273,5.2275,5.2346,0,5.1679,5.1782,5.1805,5.1892,5.1943,5.1952,5.2001,5.2042,5.2066,5.211,5.2136,5.2187,5.2175,5.2194,5.2229,5.2256,5.2299,5.2252,5.2311,5.2313,5.2296,5.2379,5.2383,5.2448,5.2356,5.2357,5.2358,0,5.1775,5.1825,5.1918,5.197,5.1992,5.2036,5.209,5.2134,5.218,5.2195,5.2231,5.224,5.2297,5.2272,5.235,5.2317,5.2343,5.236,5.2363,5.2367,5.2337,5.2382,5.247,5.2479,5.2374,5.2373,5.2371,0,5.1814,5.1904,5.1971,5.1996,5.206,5.209,5.2118,5.2162,5.2195,5.2241,5.2262,5.2314,5.2342,5.2381,5.2403,5.2383,5.2478,5.2455,5.2489,5.2488,5.2506,5.2504,5.2597,5.2528,5.2528,5.2528,5.2527,0,5.189,5.1946,5.1989,5.203,5.2092,5.2118,5.2178,5.2205,5.2245,5.2289,5.23,5.2341,5.237,5.2414,5.2432,5.2492,5.2505,5.2517,5.252,5.2514,5.2512,5.2529,5.2524,5.253,5.253,5.2529,5.2529,0,5.1943,5.1975,5.2048,5.2103,5.2118,5.2161,5.2207,5.2246,5.2271,5.2327,5.2341,5.2379,5.2432,5.2459,5.2525,5.2537,5.2604,5.2606,5.2588,5.2589,5.2621,5.2616,5.2725,5.2739,5.2664,5.2664,5.2665,0,5.1987,5.2031,5.2091,5.2122,5.2151,5.2202,5.2236,5.2263,5.2297,5.2353,5.2384,5.2438,5.2483,5.2567,5.2598,5.2648,5.265,5.2685,5.2657,5.2649,5.2647,5.2643,5.2646,5.2688,5.2689,5.269,5.269,0,5.2062,5.2076,5.2125,5.218,5.222,5.2264,5.2307,5.2332,5.2365,5.2403,5.2458,5.2493,5.2561,5.2613,5.2666,5.2692,5.2696,5.2699,5.2709,5.2702,5.2689,5.2694,5.2598,5.2696,5.2695,5.2695,5.2694,5.2694,5.211,5.2149,5.2197,5.2251,5.2287,5.2327,5.2366,5.2396,5.2443,5.2502,5.2515,5.2572,5.2616,5.2688,5.2716,5.276,5.2752,5.2767,5.277,5.2773,5.2773,5.2685,5.277,5.2769,5.2769,5.2769,5.2769,0,5.2183,5.2215,5.2265,5.2326,5.2368,5.2371,5.2419,5.2453,5.2504,5.2546,5.259,5.2653,5.2704,5.2741,5.2792,5.282,5.2823,5.2833,5.2829,5.2835,5.2778,5.2763,5.2829,5.2829,5.2829,5.2829,5.2829,5.2829,5.2226,5.2291,5.231,5.2392,5.2423,5.2481,5.2508,5.2544,5.2577,5.2647,5.2691,5.2715,5.2754,5.2809,5.2855,5.2865,5.2882,5.2891,5.2899,5.2845,5.2839,5.2833,5.2818,5.2895,5.2895,5.2952,5.2952,5.2953]}]]